GW2259 Weather Reports


Display with metric or nautical units.
time (UTC)temp
F
wind
direction
speed
MPH
gust
MPH
rain 1hr
in
rain 24hr
in
rain mn
in
humidity
%
barometer
mb
20260509074534 64 129 1.0 3.0 0.00 0.00 0.00 94 1011.2
20260509073044 64 203 2.0 5.0 0.00 0.00 0.00 95 1011.3
20260509071535 64 174 1.0 2.0 0.00 0.00 0.00 95 1011.3
20260509070037 65 0 0.0 1.0 0.00 0.00 0.00 94 1011.3
20260509064534 65 146 0.0 3.0 0.00 0.00 0.00 94 1011.4
20260509063036 66 140 3.0 6.0 0.00 0.00 0.00 93 1011.5
20260509061540 67 198 3.0 5.0 0.00 0.00 0.00 93 1011.4
20260509060038 67 174 3.0 7.0 0.00 0.00 0.00 93 1011.4
20260509054539 67 212 3.0 7.0 0.00 0.00 0.00 93 1011.4
20260509053046 67 152 4.0 8.0 0.00 0.00 0.00 94 1011.5
20260509051535 66 202 3.0 7.0 0.00 0.00 0.00 95 1011.6
20260509050035 65 0 0.0 0.0 0.00 0.00 0.00 95 1011.0
20260509044536 65 0 0.0 0.0 0.00 0.00 0.00 95 1010.7
20260509043050 65 0 0.0 1.0 0.00 0.00 0.00 94 1010.8
20260509041542 66 0 0.0 1.0 0.00 0.00 0.00 94 1010.7
20260509040033 66 262 2.0 3.0 0.00 0.00 0.00 93 1010.8
20260509034542 67 142 2.0 5.0 0.00 0.00 0.00 92 1010.1
20260509033036 68 176 3.0 6.0 0.00 0.00 0.00 92 1009.9
20260509031534 68 142 4.0 5.0 0.00 0.00 0.00 92 1009.8
20260509030036 68 153 4.0 5.0 0.00 0.00 0.00 92 1009.7
20260509024535 68 129 2.0 3.0 0.00 0.00 0.00 91 1009.7
20260509023038 70 103 1.0 3.0 0.00 0.00 0.00 90 1009.6
20260509021536 70 89 2.0 3.0 0.00 0.00 0.00 89 1009.5
20260509020042 71 96 2.0 3.0 0.00 0.00 0.00 89 1009.3
20260509014532 71 93 2.0 4.0 0.00 0.00 0.00 88 1009.1
20260509013047 71 103 2.0 3.0 0.00 0.00 0.00 87 1009.0
20260509011537 72 65 1.0 2.0 0.00 0.00 0.00 85 1009.1
20260509010048 74 98 2.0 6.0 0.00 0.00 0.00 81 1008.9
20260509004535 76 139 4.0 6.0 0.00 0.00 0.00 78 1008.4
20260509003035 78 115 4.0 9.0 0.00 0.00 0.00 76 1008.5
20260509001532 78 79 5.0 11.0 0.00 0.00 0.00 75 1008.4
20260509000031 79 109 6.0 11.0 0.00 0.00 0.00 72 1008.5
20260508234536 80 129 7.0 11.0 0.00 0.00 0.00 70 1008.4
20260508233033 81 96 7.0 10.0 0.00 0.00 0.00 69 1008.5
20260508231532 81 140 6.0 9.0 0.00 0.00 0.00 69 1008.2
20260508230047 78 163 5.0 8.0 0.00 0.00 0.00 75 1008.3
20260508224543 78 123 6.0 9.0 0.00 0.00 0.00 75 1008.3
20260508223039 79 119 7.0 10.0 0.00 0.00 0.00 71 1008.5
20260508221544 79 158 5.0 10.0 0.00 0.00 0.00 72 1008.6
20260508220036 81 150 3.0 7.0 0.00 0.00 0.00 71 1008.8
20260508214534 79 252 2.0 6.0 0.00 0.01 0.00 71 1009.0
20260508213036 77 220 2.0 5.0 0.00 0.01 0.00 74 1009.2
20260508211535 77 281 2.0 5.0 0.00 0.01 0.00 75 1009.3
20260508210035 76 278 2.0 5.0 0.00 0.01 0.00 76 1009.5
20260508204535 76 252 3.0 7.0 0.00 0.14 0.00 75 1009.7
20260508203039 76 238 3.0 7.0 0.00 0.14 0.00 75 1009.8
20260508201537 77 195 2.0 9.0 0.00 0.14 0.00 74 1009.9
20260508200044 77 215 5.0 10.0 0.00 0.14 0.00 72 1009.9
20260508194532 77 216 5.0 9.0 0.00 0.72 0.00 73 1010.0
20260508193036 76 210 3.0 10.0 0.00 0.72 0.00 78 1010.1
20260508191532 75 207 3.0 6.0 0.00 0.72 0.00 78 1010.2
20260508190042 74 240 0.0 8.0 0.00 0.72 0.00 80 1010.2
20260508184538 75 166 0.0 5.0 0.00 0.90 0.00 81 1010.4
20260508183032 74 229 3.0 11.0 0.00 0.90 0.00 79 1010.7
20260508181539 73 218 3.0 8.0 0.00 0.90 0.00 86 1010.9
20260508180032 71 220 4.0 9.0 0.00 0.90 0.00 93 1011.3
20260508174538 70 126 3.0 7.0 0.00 0.91 0.00 94 1011.5
20260508173032 69 184 7.0 11.0 0.00 0.91 0.00 94 1011.9
20260508171535 68 225 6.0 9.0 0.00 0.91 0.00 93 1011.9
20260508170035 68 157 5.0 11.0 0.00 0.91 0.00 94 1012.1
20260508164538 68 193 3.0 7.0 0.00 1.68 0.00 95 1012.3
20260508163033 66 142 3.0 8.0 0.00 1.68 0.00 94 1012.7
20260508161535 65 143 6.0 9.0 0.00 1.68 0.00 95 1012.9
20260508160035 63 191 5.0 10.0 0.00 1.68 0.00 95 1013.1
20260508154533 63 138 3.0 7.0 0.00 1.68 0.00 95 1013.2
20260508153033 62 207 3.0 5.0 0.00 1.68 0.00 95 1013.4
20260508151535 61 146 4.0 6.0 0.00 1.68 0.00 95 1013.7
20260508150041 60 164 3.0 6.0 0.00 1.68 0.00 96 1013.8
20260508144537 60 126 2.0 4.0 0.00 1.68 0.00 96 1013.7
20260508143036 59 191 1.0 3.0 0.00 1.68 0.00 96 1013.6
20260508141538 58 157 1.0 4.0 0.00 1.68 0.00 96 1013.8
20260508140033 57 131 2.0 3.0 0.00 1.68 0.00 96 1013.9
20260508134537 56 119 2.0 5.0 0.00 1.68 0.00 96 1014.2
20260508133037 56 92 2.0 4.0 0.00 1.68 0.00 97 1014.3
20260508131532 56 120 2.0 3.0 0.00 1.68 0.00 97 1014.2
20260508130056 56 127 2.0 3.0 0.00 1.68 0.00 97 1014.2
20260508124535 55 0 1.0 3.0 0.00 1.68 0.00 97 1014.2
20260508123035 55 103 1.0 3.0 0.00 1.68 0.00 96 1014.2
20260508121535 55 0 0.0 1.0 0.00 1.68 0.00 97 1013.9
20260508120032 55 0 0.0 0.0 0.00 1.68 0.00 97 1013.8
20260508114535 55 0 0.0 0.0 0.00 1.68 0.00 97 1013.9
20260508113038 55 0 0.0 2.0 0.00 1.68 0.00 97 1014.0
20260508111535 55 0 0.0 0.0 0.00 1.68 0.00 96 1014.1
20260508110037 55 0 0.0 3.0 0.00 1.68 0.00 97 1014.2
20260508104557 55 150 2.0 5.0 0.00 1.68 0.00 96 1013.8
20260508103043 55 141 4.0 6.0 0.00 1.68 0.00 97 1013.8
20260508101535 55 0 1.0 3.0 0.00 1.68 0.00 96 1013.9
20260508100037 55 0 0.0 4.0 0.00 1.68 0.00 97 1014.4
20260508094534 55 104 4.0 6.0 0.00 1.68 0.00 97 1014.2
20260508093033 55 120 2.0 3.0 0.00 1.68 0.00 97 1014.3
20260508091538 55 0 0.0 0.0 0.00 1.68 0.00 97 1014.3
20260508090037 55 0 0.0 3.0 0.00 1.68 0.00 97 1014.4
20260508084536 55 65 2.0 5.0 0.00 1.68 0.00 97 1014.4
20260508083046 55 0 1.0 4.0 0.00 1.68 0.00 97 1014.8
20260508081552 54 349 1.0 3.0 0.00 1.68 0.00 97 1015.1
20260508080039 54 0 0.0 3.0 0.00 1.68 0.00 97 1015.0